{"data":{"norad_id":48225,"epoch":"2026-05-25T04:11:39.588000Z","epoch_age_seconds":74145,"freshness":"FRESH","line1":"1 48225U 21031R   26145.17476375  .00000143  00000+0  35247-3 0  9997","line2":"2 48225  87.8944 294.2923 0002122 100.2821 259.8548 13.14500512245234","mean_motion":13.14500512,"eccentricity":0.0002122,"inclination_deg":87.8944,"raan_deg":294.2923,"arg_perigee_deg":100.2821,"mean_anomaly_deg":259.8548,"bstar":0.00035247,"rev_number":24523,"period_min":109.54731374041,"perigee_km":1204.1898437032,"apogee_km":1207.4084662074,"semimajor_km":7583.9361549553,"source":"CELESTRAK","updated_at":"2026-05-25T13:38:22.436423Z"}}